| time (UTC) | temp F | wind direction | speed MPH | gust MPH | rain 1hr in | rain 24hr in | rain mn in | humidity % | barometer mb |
| 20260510021547 | 79 | 148 | 0.0 | 7.0 | 0.00 | 0.02 | 0.02 | 70 | 1009.6 |
| 20260510020146 | 79 | 215 | 1.0 | 5.0 | 0.00 | 0.02 | 0.02 | 68 | 1009.6 |
| 20260510014545 | 80 | 150 | 0.0 | 2.0 | 0.00 | 0.02 | 0.02 | 66 | 1009.4 |
| 20260510013043 | 81 | 155 | 2.0 | 5.0 | 0.00 | 0.02 | 0.02 | 64 | 1009.3 |
| 20260510011543 | 82 | 120 | 2.0 | 6.0 | 0.00 | 0.02 | 0.02 | 61 | 1009.1 |
| 20260510010142 | 82 | 112 | 3.0 | 7.0 | 0.00 | 0.02 | 0.02 | 58 | 1009.2 |
| 20260510004539 | 83 | 123 | 1.0 | 7.0 | 0.00 | 0.02 | 0.02 | 59 | 1009.0 |
| 20260510003054 | 84 | 149 | 1.0 | 5.0 | 0.00 | 0.02 | 0.02 | 57 | 1008.8 |
| 20260510001538 | 85 | 117 | 1.0 | 4.0 | 0.00 | 0.02 | 0.02 | 53 | 1008.7 |
| 20260510000139 | 86 | 139 | 1.0 | 7.0 | 0.00 | 0.02 | 0.02 | 49 | 1008.7 |
| 20260509234542 | 87 | 105 | 0.0 | 4.0 | 0.00 | 0.02 | 0.02 | 45 | 1008.6 |
| 20260509233037 | 88 | 107 | 1.0 | 6.0 | 0.00 | 0.02 | 0.02 | 44 | 1008.5 |
| 20260509231534 | 88 | 138 | 1.0 | 7.0 | 0.00 | 0.02 | 0.02 | 43 | 1008.5 |
| 20260509230134 | 88 | 88 | 1.0 | 8.0 | 0.00 | 0.02 | 0.02 | 41 | 1008.5 |
| 20260509224600 | 89 | 101 | 1.0 | 7.0 | 0.00 | 0.02 | 0.02 | 44 | 1008.6 |
| 20260509223101 | 89 | 140 | 0.0 | 7.0 | 0.00 | 0.02 | 0.02 | 43 | 1008.6 |
| 20260509221551 | 89 | 105 | 1.0 | 7.0 | 0.00 | 0.02 | 0.02 | 43 | 1008.4 |
| 20260509220149 | 89 | 86 | 0.0 | 7.0 | 0.00 | 0.02 | 0.02 | 42 | 1008.4 |
| 20260509214552 | 89 | 97 | 3.0 | 10.0 | 0.00 | 0.02 | 0.02 | 44 | 1008.5 |
| 20260509213051 | 90 | 148 | 2.0 | 11.0 | 0.00 | 0.02 | 0.02 | 43 | 1008.7 |
| 20260509211547 | 90 | 132 | 4.0 | 11.0 | 0.00 | 0.02 | 0.02 | 39 | 1008.9 |
| 20260509210149 | 90 | 120 | 1.0 | 4.0 | 0.00 | 0.02 | 0.02 | 38 | 1009.1 |
| 20260509204554 | 89 | 79 | 0.0 | 4.0 | 0.00 | 0.02 | 0.02 | 37 | 1009.1 |
| 20260509203056 | 88 | 111 | 2.0 | 10.0 | 0.00 | 0.02 | 0.02 | 39 | 1009.2 |
| 20260509201544 | 85 | 110 | 4.0 | 11.0 | 0.00 | 0.02 | 0.02 | 39 | 1009.5 |
| 20260509200144 | 82 | 77 | 2.0 | 15.0 | 0.00 | 0.02 | 0.02 | 46 | 1010.2 |
| 20260509194549 | 84 | 63 | 5.0 | 13.0 | 0.00 | 0.02 | 0.02 | 43 | 1010.3 |
| 20260509193048 | 89 | 100 | 1.0 | 8.0 | 0.00 | 0.02 | 0.02 | 45 | 1010.2 |
| 20260509191546 | 90 | 205 | 1.0 | 7.0 | 0.00 | 0.02 | 0.02 | 50 | 1010.0 |
| 20260509190141 | 90 | 159 | 1.0 | 8.0 | 0.00 | 0.02 | 0.02 | 46 | 1010.0 |
| 20260509184548 | 89 | 15 | 2.0 | 8.0 | 0.00 | 0.02 | 0.02 | 51 | 1010.2 |
| 20260509183040 | 87 | 215 | 1.0 | 7.0 | 0.00 | 0.02 | 0.02 | 57 | 1010.4 |
| 20260509181554 | 86 | 360 | 0.0 | 6.0 | 0.00 | 0.02 | 0.02 | 58 | 1010.6 |
| 20260509180137 | 86 | 214 | 2.0 | 7.0 | 0.00 | 0.02 | 0.02 | 61 | 1010.7 |
| 20260509174542 | 85 | 315 | 0.0 | 3.0 | 0.00 | 0.02 | 0.02 | 66 | 1010.6 |
| 20260509173047 | 87 | 171 | 0.0 | 3.0 | 0.00 | 0.02 | 0.02 | 61 | 1011.3 |
| 20260509171549 | 86 | 206 | 0.0 | 5.0 | 0.00 | 0.02 | 0.02 | 62 | 1011.3 |
| 20260509170138 | 85 | 215 | 3.0 | 8.0 | 0.00 | 0.02 | 0.02 | 68 | 1011.2 |
| 20260509164543 | 84 | 317 | 2.0 | 7.0 | 0.00 | 0.02 | 0.02 | 67 | 1011.2 |
| 20260509163040 | 83 | 188 | 1.0 | 7.0 | 0.00 | 0.02 | 0.02 | 71 | 1011.4 |
| 20260509161541 | 81 | 173 | 4.0 | 10.0 | 0.00 | 0.02 | 0.02 | 73 | 1011.3 |
| 20260509160007 | 80 | 230 | 2.0 | 9.0 | 0.00 | 0.02 | 0.02 | 76 | 1011.5 |
| 20260509154502 | 78 | 214 | 3.0 | 11.0 | 0.00 | 0.02 | 0.02 | 81 | 1011.5 |
| 20260509153109 | 76 | 201 | 2.0 | 9.0 | 0.00 | 0.02 | 0.02 | 84 | 1011.4 |
| 20260509151601 | 75 | 174 | 2.0 | 7.0 | 0.00 | 0.02 | 0.02 | 85 | 1011.2 |
| 20260509150152 | 75 | 142 | 1.0 | 6.0 | 0.00 | 0.02 | 0.02 | 86 | 1011.2 |
| 20260509144556 | 74 | 194 | 2.0 | 6.0 | 0.00 | 0.02 | 0.02 | 86 | 1010.9 |
| 20260509143106 | 74 | 172 | 2.0 | 9.0 | 0.00 | 0.02 | 0.02 | 87 | 1011.1 |
| 20260509141551 | 74 | 112 | 1.0 | 6.0 | 0.00 | 0.02 | 0.02 | 88 | 1010.7 |
| 20260509140149 | 73 | 277 | 1.0 | 5.0 | 0.00 | 0.02 | 0.02 | 90 | 1010.4 |
| 20260509134547 | 72 | 107 | 1.0 | 7.0 | 0.00 | 0.02 | 0.02 | 92 | 1010.5 |
| 20260509133057 | 71 | 173 | 0.0 | 3.0 | 0.01 | 0.02 | 0.02 | 93 | 1010.8 |
| 20260509131544 | 71 | 24 | 0.0 | 2.0 | 0.01 | 0.02 | 0.02 | 92 | 1011.2 |
| 20260509130144 | 71 | 24 | 0.0 | 2.0 | 0.01 | 0.02 | 0.02 | 92 | 1011.5 |
| 20260509124549 | 70 | 16 | 0.0 | 0.0 | 0.01 | 0.02 | 0.02 | 92 | 1011.0 |
| 20260509123045 | 70 | 17 | 0.0 | 0.0 | 0.00 | 0.01 | 0.01 | 92 | 1010.8 |
| 20260509121549 | 70 | 17 | 0.0 | 0.0 | 0.00 | 0.01 | 0.01 | 91 | 1010.8 |
| 20260509120141 | 70 | 17 | 0.0 | 2.0 | 0.00 | 0.01 | 0.01 | 91 | 1010.5 |
| 20260509114545 | 71 | 27 | 0.0 | 3.0 | 0.00 | 0.01 | 0.01 | 92 | 1011.0 |
| 20260509113044 | 71 | 325 | 0.0 | 3.0 | 0.00 | 0.01 | 0.01 | 92 | 1011.3 |
| 20260509111542 | 71 | 355 | 0.0 | 5.0 | 0.00 | 0.01 | 0.01 | 92 | 1011.8 |
| 20260509110140 | 71 | 29 | 0.0 | 0.0 | 0.01 | 0.01 | 0.01 | 91 | 1011.9 |
| 20260509104600 | 71 | 34 | 0.0 | 0.0 | 0.01 | 0.01 | 0.01 | 91 | 1012.2 |
| 20260509103042 | 71 | 34 | 0.0 | 0.0 | 0.01 | 0.01 | 0.01 | 91 | 1011.9 |
| 20260509101540 | 71 | 40 | 0.0 | 0.0 | 0.01 | 0.01 | 0.01 | 92 | 1011.9 |
| 20260509100137 | 71 | 49 | 0.0 | 0.0 | 0.00 | 0.00 | 0.00 | 91 | 1011.3 |
| 20260509094537 | 71 | 55 | 0.0 | 0.0 | 0.00 | 0.00 | 0.00 | 91 | 1010.6 |
| 20260509093035 | 71 | 55 | 0.0 | 0.0 | 0.00 | 0.00 | 0.00 | 91 | 1010.6 |
| 20260509091540 | 71 | 55 | 0.0 | 0.0 | 0.00 | 0.00 | 0.00 | 91 | 1010.3 |
| 20260509090133 | 71 | 55 | 0.0 | 0.0 | 0.00 | 0.00 | 0.00 | 91 | 1010.4 |
| 20260509084605 | 71 | 38 | 0.0 | 0.0 | 0.00 | 0.00 | 0.00 | 91 | 1010.6 |
| 20260509083054 | 71 | 134 | 0.0 | 0.0 | 0.00 | 0.00 | 0.00 | 90 | 1010.9 |
| 20260509081555 | 71 | 134 | 0.0 | 1.0 | 0.00 | 0.00 | 0.00 | 90 | 1011.0 |
| 20260509080151 | 71 | 135 | 0.0 | 0.0 | 0.00 | 0.00 | 0.00 | 90 | 1010.8 |
| 20260509074553 | 71 | 139 | 0.0 | 0.0 | 0.00 | 0.00 | 0.00 | 89 | 1010.9 |
| 20260509073053 | 71 | 139 | 0.0 | 0.0 | 0.00 | 0.00 | 0.00 | 89 | 1010.9 |
| 20260509071552 | 71 | 139 | 0.0 | 0.0 | 0.00 | 0.00 | 0.00 | 88 | 1011.3 |
| 20260509070151 | 71 | 139 | 0.0 | 3.0 | 0.00 | 0.00 | 0.00 | 88 | 1011.3 |
| 20260509064602 | 72 | 146 | 0.0 | 4.0 | 0.00 | 0.00 | 0.00 | 87 | 1010.7 |
| 20260509063110 | 72 | 201 | 0.0 | 6.0 | 0.00 | 0.00 | 0.00 | 87 | 1010.8 |
| 20260509061613 | 72 | 238 | 2.0 | 8.0 | 0.00 | 0.00 | 0.00 | 86 | 1010.8 |
| 20260509060148 | 72 | 199 | 1.0 | 5.0 | 0.00 | 0.00 | 0.00 | 86 | 1010.3 |
| 20260509054546 | 72 | 136 | 3.0 | 7.0 | 0.00 | 0.00 | 0.00 | 86 | 1010.6 |
| 20260509053045 | 72 | 148 | 2.0 | 7.0 | 0.00 | 0.00 | 0.00 | 85 | 1010.3 |
| 20260509051544 | 73 | 148 | 1.0 | 7.0 | 0.00 | 0.00 | 0.00 | 85 | 1009.7 |
| 20260509050144 | 73 | 143 | 0.0 | 7.0 | 0.00 | 0.00 | 0.00 | 84 | 1009.8 |
| 20260509044543 | 73 | 122 | 1.0 | 9.0 | 0.00 | 0.00 | 0.00 | 83 | 1010.1 |
| 20260509043043 | 73 | 151 | 2.0 | 7.0 | 0.00 | 0.00 | 0.00 | 84 | 1010.0 |
| 20260509041542 | 73 | 155 | 0.0 | 4.0 | 0.00 | 0.00 | 0.00 | 84 | 1010.4 |
| 20260509040141 | 73 | 200 | 0.0 | 4.0 | 0.00 | 0.00 | 0.00 | 84 | 1010.3 |
| 20260509034539 | 73 | 207 | 0.0 | 5.0 | 0.00 | 0.00 | 0.00 | 83 | 1010.1 |
| 20260509033040 | 73 | 175 | 0.0 | 3.0 | 0.00 | 0.00 | 0.00 | 83 | 1010.0 |
| 20260509031538 | 72 | 129 | 1.0 | 4.0 | 0.00 | 0.00 | 0.00 | 83 | 1010.1 |
| 20260509030137 | 73 | 144 | 2.0 | 5.0 | 0.00 | 0.00 | 0.00 | 82 | 1010.0 |
| 20260509024539 | 73 | 135 | 1.0 | 7.0 | 0.00 | 0.00 | 0.00 | 82 | 1009.7 |
| 20260509023036 | 73 | 144 | 0.0 | 6.0 | 0.00 | 0.00 | 0.00 | 81 | 1009.7 |